datetime,"minimum soil temperature, 8 in depth"
1999-03-31,38.54
1999-04-01,37.57
1999-04-02,37.87
1999-04-03,39.01
1999-04-04,38.04
1999-04-05,38.14
1999-04-06,38.24
1999-04-07,39.31
1999-04-08,39.88
1999-04-09,38.34
1999-04-10,38.57
1999-04-11,38.94
1999-04-12,41.7
1999-04-13,43.97
1999-04-14,44.32
1999-04-15,44.74
1999-04-16,45.37
1999-04-17,46.97
1999-04-18,48.9
1999-04-19,48.75
1999-04-20,48.57
1999-04-21,48.64
1999-04-22,46.54
1999-04-23,45.79
1999-04-24,47.58
1999-04-25,49.08
1999-04-26,48.27
1999-04-27,47.62
1999-04-28,46.04
1999-04-29,45.48
1999-04-30,47.58
1999-05-01,49.67
1999-05-02,49.53
1999-05-03,47.37
1999-05-04,46.43
1999-05-05,45.94
1999-05-06,49.49
1999-05-07,48.71
1999-05-08,48.6
1999-05-09,47.95
1999-05-10,48.64
1999-05-11,49.23
1999-05-12,49.08
1999-05-13,49.12
1999-05-14,48.38
1999-05-15,46.08
1999-05-16,47.51
1999-05-17,50.88
1999-05-18,51.98
1999-05-19,52.45
1999-05-20,54.58
1999-05-21,54.06
1999-05-22,54.86
1999-05-23,55.76
1999-05-24,57.72
1999-05-25,58.54
1999-05-26,58.15
1999-05-27,59.58
1999-05-28,60.51
1999-05-29,59.23
1999-05-30,57.51
1999-05-31,57.77
1999-06-01,59.36
1999-06-02,56.8
1999-06-03,55.64
1999-06-04,53.7
1999-06-05,55.56
1999-06-06,55.93
1999-06-07,55.6
1999-06-08,55.15
1999-06-09,55.51
1999-06-10,56.71
1999-06-11,57.98
1999-06-12,59.8
1999-06-13,60.6
1999-06-14,62.56
1999-06-15,63.31
1999-06-16,63.35
1999-06-17,62.75
1999-06-18,63.31
1999-06-19,63.31
1999-06-20,63.97
1999-06-21,63.64
1999-06-22,63.21
1999-06-23,63.78
1999-06-24,65.61
1999-06-25,63.07
1999-06-26,62.84
1999-06-27,62.42
1999-06-28,63.73
1999-06-29,63.35
1999-06-30,64.02
1999-07-01,62.98
1999-07-02,61.82
1999-07-03,59.8
1999-07-04,57.77
1999-07-05,59.62
1999-07-06,61.78
1999-07-07,63.03
1999-07-08,62.7
1999-07-09,64.11
1999-07-10,66.11
1999-07-11,67.56
1999-07-12,68.8
1999-07-13,69.48
1999-07-14,68.59
1999-07-15,66.45
1999-07-16,66.35
1999-07-17,65.86
1999-07-18,65.37
1999-07-19,65.27
1999-07-20,65.96
1999-07-21,65.47
1999-07-22,65.42
1999-07-23,66.26
1999-07-24,66.96
1999-07-25,66.35
1999-07-26,67.56
1999-07-27,67.82
1999-07-28,68.18
1999-07-29,68.07
1999-07-30,68.43
1999-07-31,68.69
1999-08-01,69.27
1999-08-02,69.16
1999-08-03,69.48
1999-08-04,70.27
1999-08-05,70.17
1999-08-06,68.95
1999-08-07,63.87
1999-08-08,62.01
1999-08-09,63.59
1999-08-10,65.56
1999-08-11,62.89
1999-08-12,63.73
1999-08-13,64.3
1999-08-14,63.5
1999-08-15,62.28
1999-08-16,63.4
1999-08-17,64.98
1999-08-18,64.98
1999-08-19,65.56
1999-08-20,66.26
1999-08-21,66.6
1999-08-22,66.9
1999-08-23,67.77
1999-08-24,64.06
1999-08-25,65.17
1999-08-26,66.6
1999-08-27,68.33
1999-08-28,66.8
1999-08-29,66.75
1999-08-30,63.54
1999-08-31,59.19
1999-09-01,58.06
1999-09-02,58.71
1999-09-03,58.58
1999-09-04,58.36
1999-09-05,59.19
1999-09-06,60.33
1999-09-07,60.42
1999-09-08,60.91
1999-09-09,61.32
1999-09-10,61.0
1999-09-11,60.82
1999-09-12,60.87
1999-09-13,61.23
1999-09-14,61.41
1999-09-15,61.5
1999-09-16,61.14
1999-09-17,60.91
1999-09-18,61.46
1999-09-19,62.1
1999-09-20,61.82
1999-09-21,61.5
1999-09-22,61.41
1999-09-23,61.64
1999-09-24,61.82
1999-09-25,61.41
1999-09-26,59.45
1999-09-27,57.81
1999-09-28,56.92
1999-09-29,56.42
1999-09-30,56.84
1999-10-01,57.89
1999-10-02,57.01
1999-10-03,56.42
1999-10-04,56.3
1999-10-05,56.59
1999-10-06,56.21
1999-10-07,53.15
1999-10-08,53.62
1999-10-09,54.58
1999-10-10,54.91
1999-10-11,55.76
1999-10-12,55.43
1999-10-13,54.86
1999-10-14,54.99
1999-10-15,53.59
1999-10-16,52.02
1999-10-17,51.26
1999-10-18,50.69
1999-10-19,51.87
1999-10-20,51.33
1999-10-21,51.37
1999-10-22,51.22
1999-10-23,50.69
1999-10-24,50.46
1999-10-25,50.24
1999-10-26,52.33
1999-10-27,50.46
1999-10-28,49.56
1999-10-29,47.04
1999-10-30,46.65
1999-10-31,47.69
1999-11-01,46.9
1999-11-02,45.44
1999-11-03,45.76
1999-11-04,47.73
1999-11-05,49.04
1999-11-06,49.6
1999-11-07,49.6
1999-11-08,48.9
1999-11-09,48.42
1999-11-10,48.16
1999-11-11,48.06
1999-11-12,48.16
1999-11-13,47.15
1999-11-14,46.04
1999-11-15,46.86
1999-11-16,47.37
1999-11-17,45.02
1999-11-18,42.94
1999-11-19,43.04
1999-11-20,42.94
1999-11-21,42.08
1999-11-22,39.98
1999-11-23,39.48
1999-11-24,39.71
1999-11-25,41.06
1999-11-26,42.49
1999-11-27,41.77
1999-11-28,40.62
1999-11-29,41.5
1999-11-30,41.53
1999-12-01,40.69
1999-12-02,40.18
1999-12-03,39.07
1999-12-04,38.14
1999-12-05,37.9
1999-12-06,37.81
1999-12-07,38.0
1999-12-08,37.61
1999-12-09,37.37
1999-12-10,
1999-12-11,
1999-12-12,
1999-12-13,34.69
1999-12-14,36.31
1999-12-15,36.18
1999-12-16,36.11
1999-12-17,37.24
1999-12-18,38.27
1999-12-19,37.64
1999-12-20,37.17
1999-12-21,36.64
1999-12-22,36.31
1999-12-23,35.91
1999-12-24,35.58
1999-12-25,35.38
1999-12-26,35.25
1999-12-27,35.12
1999-12-28,34.89
1999-12-29,34.66
1999-12-30,34.42
1999-12-31,34.19
2000-01-01,34.03
2000-01-02,33.93
2000-01-03,33.93
2000-01-04,33.96
2000-01-05,34.06
2000-01-06,34.09
2000-01-07,34.13
2000-01-08,34.16
2000-01-09,34.26
2000-01-10,34.19
2000-01-11,34.0
2000-01-12,34.16
2000-01-13,34.39
2000-01-14,34.59
2000-01-15,36.08
2000-01-16,37.31
2000-01-17,36.74
2000-01-18,36.34
2000-01-19,36.87
2000-01-20,38.07
2000-01-21,37.41
2000-01-22,37.24
2000-01-23,37.04
2000-01-24,37.21
2000-01-25,37.31
2000-01-26,37.57
2000-01-27,37.04
2000-01-28,36.24
2000-01-29,35.65
2000-01-30,35.42
2000-01-31,35.28
2000-02-01,35.19
2000-02-02,36.28
2000-02-03,36.97
2000-02-04,37.41
2000-02-05,37.61
2000-02-06,37.97
2000-02-07,38.17
2000-02-08,38.71
2000-02-09,38.51
2000-02-10,40.15
2000-02-11,40.65
2000-02-12,39.41
2000-02-13,38.87
2000-02-14,39.01
2000-02-15,38.44
2000-02-16,38.24
2000-02-17,38.64
2000-02-18,38.27
2000-02-19,38.0
2000-02-20,39.21
2000-02-21,39.44
2000-02-22,39.48
2000-02-23,39.14
2000-02-24,37.97
2000-02-25,37.9
2000-02-26,38.24
2000-02-27,39.07
2000-02-28,38.84
2000-02-29,39.61
2000-03-01,38.77
2000-03-02,38.94
2000-03-03,38.94
2000-03-04,40.21
2000-03-05,39.34
2000-03-06,38.34
2000-03-07,38.14
2000-03-08,37.71
2000-03-09,38.04
2000-03-10,38.0
2000-03-11,38.54
2000-03-12,38.94
2000-03-13,39.81
2000-03-14,41.5
2000-03-15,40.86
2000-03-16,43.87
2000-03-17,41.19
2000-03-18,42.11
2000-03-19,43.04
2000-03-20,40.62
2000-03-21,40.32
2000-03-22,42.22
2000-03-23,43.49
2000-03-24,42.46
2000-03-25,43.18
2000-03-26,43.35
2000-03-27,44.81
2000-03-28,43.11
2000-03-29,42.9
2000-03-30,42.8
2000-03-31,43.42
2000-04-01,44.49
2000-04-02,46.08
2000-04-03,47.48
2000-04-04,48.71
2000-04-05,48.35
2000-04-06,48.2
2000-04-07,47.48
2000-04-08,48.9
2000-04-09,48.82
2000-04-10,47.87
2000-04-11,49.04
2000-04-12,50.01
2000-04-13,49.38
2000-04-14,48.79
2000-04-15,49.38
2000-04-16,47.51
2000-04-17,47.48
2000-04-18,45.55
2000-04-19,44.84
2000-04-20,46.25
2000-04-21,48.54
2000-04-22,50.97
2000-04-23,49.39
2000-04-24,47.58
2000-04-25,49.71
2000-04-26,49.13
2000-04-27,52.06
2000-04-28,49.56
2000-04-29,47.58
2000-04-30,49.97
2000-05-01,52.2
2000-05-02,51.42
2000-05-03,52.89
2000-05-04,53.04
2000-05-05,52.2
2000-05-06,52.38
2000-05-07,51.46
2000-05-08,50.85
2000-05-09,52.33
2000-05-10,51.4
2000-05-11,49.21
2000-05-12,49.0
2000-05-13,50.14
2000-05-14,49.46
2000-05-15,50.9
2000-05-16,50.81
2000-05-17,50.66
2000-05-18,51.43
2000-05-19,54.53
2000-05-20,56.36
2000-05-21,58.01
2000-05-22,59.51
2000-05-23,59.9
2000-05-24,60.13
2000-05-25,60.02
2000-05-26,59.68
2000-05-27,61.25
2000-05-28,60.28
2000-05-29,60.18
2000-05-30,59.83
2000-05-31,57.75
2000-06-01,58.73
2000-06-02,60.41
2000-06-03,61.7
2000-06-04,62.85
2000-06-05,63.41
2000-06-06,63.23
2000-06-07,63.07
2000-06-08,62.47
2000-06-09,58.68
2000-06-10,59.34
2000-06-11,59.11
2000-06-12,59.35
2000-06-13,58.07
2000-06-14,61.7
2000-06-15,63.86
2000-06-16,64.06
2000-06-17,63.66
2000-06-18,65.14
2000-06-19,65.0
2000-06-20,64.49
2000-06-21,66.15
2000-06-22,67.42
2000-06-23,67.88
2000-06-24,68.17
2000-06-25,68.34
2000-06-26,68.44
2000-06-27,68.16
2000-06-28,68.85
2000-06-29,69.66
2000-06-30,70.3
2000-07-01,69.34
2000-07-02,68.53
2000-07-03,66.96
2000-07-04,64.74
2000-07-05,64.16
2000-07-06,60.45
2000-07-07,61.9
2000-07-08,62.88
2000-07-09,64.02
2000-07-10,65.92
2000-07-11,67.32
2000-07-12,68.84
2000-07-13,69.31
2000-07-14,68.98
2000-07-15,68.68
2000-07-16,69.07
2000-07-17,69.07
2000-07-18,69.48
2000-07-19,70.3
2000-07-20,70.8
2000-07-21,71.6
2000-07-22,71.9
2000-07-23,70.8
2000-07-24,71.1
2000-07-25,71.2
2000-07-26,69.69
2000-07-27,69.58
2000-07-28,70.6
2000-07-29,71.7
2000-07-30,72.7
2000-07-31,73.7
2000-08-01,72.4
2000-08-02,72.3
2000-08-03,72.8
2000-08-04,73.5
2000-08-05,72.8
2000-08-06,73.0
2000-08-07,72.3
2000-08-08,72.1
2000-08-09,72.7
2000-08-10,71.5
2000-08-11,69.61
2000-08-12,70.2
2000-08-13,70.2
2000-08-14,69.64
2000-08-15,69.68
2000-08-16,69.44
2000-08-17,69.04
2000-08-18,68.05
2000-08-19,67.61
2000-08-20,66.96
2000-08-21,67.75
2000-08-22,68.47
2000-08-23,68.18
2000-08-24,67.91
2000-08-25,68.47
2000-08-26,68.6
2000-08-27,70.5
2000-08-28,71.8
2000-08-29,69.27
2000-08-30,68.07
2000-08-31,67.38
2000-09-01,65.59
2000-09-02,61.94
2000-09-03,60.75
2000-09-04,59.4
2000-09-05,57.12
2000-09-06,56.99
2000-09-07,58.57
2000-09-08,60.41
2000-09-09,59.67
2000-09-10,60.26
2000-09-11,61.66
2000-09-12,63.37
2000-09-13,64.11
2000-09-14,64.21
2000-09-15,64.45
2000-09-16,64.1
2000-09-17,63.2
2000-09-18,64.19
2000-09-19,65.36
2000-09-20,65.62
2000-09-21,64.64
2000-09-22,63.02
2000-09-23,59.36
2000-09-24,57.91
2000-09-25,58.04
2000-09-26,58.22
2000-09-27,58.35
2000-09-28,59.72
2000-09-29,59.76
2000-09-30,60.04
2000-10-01,60.75
2000-10-02,59.6
2000-10-03,58.09
2000-10-04,58.01
2000-10-05,57.58
2000-10-06,57.82
2000-10-07,57.46
2000-10-08,57.63
2000-10-09,57.5
2000-10-10,54.3
2000-10-11,52.17
2000-10-12,50.32
2000-10-13,50.83
2000-10-14,50.18
2000-10-15,50.22
2000-10-16,49.81
2000-10-17,50.22
2000-10-18,50.71
2000-10-19,51.31
2000-10-20,51.87
2000-10-21,48.95
2000-10-22,46.71
2000-10-23,45.4
2000-10-24,45.8
2000-10-25,48.18
2000-10-26,46.54
2000-10-27,45.51
2000-10-28,46.98
2000-10-29,44.7
2000-10-30,44.31
2000-10-31,43.39
2000-11-01,43.26
2000-11-02,44.35
2000-11-03,45.74
2000-11-04,45.09
2000-11-05,44.39
2000-11-06,44.34
2000-11-07,42.43
2000-11-08,43.82
2000-11-09,41.54
2000-11-10,40.02
2000-11-11,38.99
2000-11-12,37.85
2000-11-13,37.11
2000-11-14,37.11
2000-11-15,37.39
2000-11-16,37.56
2000-11-17,37.15
2000-11-18,36.81
2000-11-19,36.48
2000-11-20,36.25
2000-11-21,36.26
2000-11-22,36.18
2000-11-23,35.88
2000-11-24,35.85
2000-11-25,35.84
2000-11-26,35.86
2000-11-27,36.3
2000-11-28,37.54
2000-11-29,38.84
2000-11-30,38.04
2000-12-01,37.64
2000-12-02,37.08
2000-12-03,36.88
2000-12-04,36.64
2000-12-05,36.3
2000-12-06,36.02
2000-12-07,35.66
2000-12-08,35.47
2000-12-09,35.49
2000-12-10,36.15
2000-12-11,35.59
2000-12-12,35.45
2000-12-13,35.43
2000-12-14,35.43
2000-12-15,35.4
2000-12-16,35.37
2000-12-17,35.42
2000-12-18,35.08
2000-12-19,34.91
2000-12-20,34.89
2000-12-21,34.88
2000-12-22,35.0
2000-12-23,35.66
2000-12-24,35.47
2000-12-25,35.03
2000-12-26,34.63
2000-12-27,34.52
2000-12-28,34.26
2000-12-29,34.14
2000-12-30,33.97
2000-12-31,33.88
2001-01-01,33.86
2001-01-02,33.86
2001-01-03,33.89
2001-01-04,33.94
2001-01-05,33.99
2001-01-06,34.08
2001-01-07,34.16
2001-01-08,34.17
2001-01-09,34.34
2001-01-10,34.31
2001-01-11,34.3
2001-01-12,34.29
2001-01-13,34.33
2001-01-14,34.36
2001-01-15,34.25
2001-01-16,33.96
2001-01-17,33.47
2001-01-18,33.26
2001-01-19,33.27
2001-01-20,33.3
2001-01-21,33.36
2001-01-22,33.48
2001-01-23,33.67
2001-01-24,33.85
2001-01-25,34.22
2001-01-26,33.99
2001-01-27,33.94
2001-01-28,33.81
2001-01-29,33.77
2001-01-30,33.74
2001-01-31,33.46
2001-02-01,33.39
2001-02-02,33.39
2001-02-03,33.4
2001-02-04,34.48
2001-02-05,35.55
2001-02-06,35.26
2001-02-07,34.5
2001-02-08,33.95
2001-02-09,33.81
2001-02-10,33.77
2001-02-11,33.76
2001-02-12,33.67
2001-02-13,33.54
2001-02-14,33.45
2001-02-15,33.44
2001-02-16,33.45
2001-02-17,33.5
2001-02-18,33.78
2001-02-19,34.71
2001-02-20,35.39
2001-02-21,36.05
2001-02-22,36.33
2001-02-23,35.79
2001-02-24,35.03
2001-02-25,34.78
2001-02-26,35.77
2001-02-27,36.18
2001-02-28,36.15
2001-03-01,35.7
2001-03-02,35.53
2001-03-03,35.04
2001-03-04,34.84
2001-03-05,36.41
2001-03-06,36.49
2001-03-07,39.17
2001-03-08,41.65
2001-03-09,39.46
2001-03-10,38.04
2001-03-11,38.35
2001-03-12,39.07
2001-03-13,40.03
2001-03-14,40.18
2001-03-15,39.97
2001-03-16,38.96
2001-03-17,40.47
2001-03-18,42.12
2001-03-19,44.63
2001-03-20,45.0
2001-03-21,45.27
2001-03-22,45.79
2001-03-23,47.38
2001-03-24,48.12
2001-03-25,47.07
2001-03-26,45.06
2001-03-27,43.99
2001-03-28,44.86
2001-03-29,45.03
2001-03-30,45.58
2001-03-31,46.36
2001-04-01,46.42
2001-04-02,45.75
2001-04-03,44.1
2001-04-04,42.61
2001-04-05,42.47
2001-04-06,44.54
2001-04-07,42.44
2001-04-08,40.98
2001-04-09,39.96
2001-04-10,40.97
2001-04-11,42.07
2001-04-12,40.68
2001-04-13,41.71
2001-04-14,41.31
2001-04-15,42.74
2001-04-16,43.09
2001-04-17,44.83
2001-04-18,46.7
2001-04-19,44.34
2001-04-20,44.14
2001-04-21,44.36
2001-04-22,44.41
2001-04-23,47.18
2001-04-24,48.96
2001-04-25,51.45
2001-04-26,52.66
2001-04-27,53.31
2001-04-28,53.22
2001-04-29,50.82
2001-04-30,51.52
2001-05-01,51.57
2001-05-02,50.42
2001-05-03,50.53
2001-05-04,51.82
2001-05-05,53.8
2001-05-06,53.73
2001-05-07,54.92
2001-05-08,56.72
2001-05-09,57.08
2001-05-10,57.09
2001-05-11,58.3
2001-05-12,59.9
2001-05-13,58.8
2001-05-14,58.81
2001-05-15,56.57
2001-05-16,55.3
2001-05-17,55.75
2001-05-18,57.07
2001-05-19,58.92
2001-05-20,59.91
2001-05-21,60.78
2001-05-22,61.82
2001-05-23,63.71
2001-05-24,64.85
2001-05-25,65.39
2001-05-26,66.28
2001-05-27,66.5
2001-05-28,63.9
2001-05-29,62.72
2001-05-30,63.18
2001-05-31,64.66
2001-06-01,66.45
2001-06-02,64.56
2001-06-03,62.53
2001-06-04,60.89
2001-06-05,61.86
2001-06-06,60.85
2001-06-07,62.72
2001-06-08,64.78
2001-06-09,65.27
2001-06-10,65.15
2001-06-11,63.95
2001-06-12,61.9
2001-06-13,61.4
2001-06-14,63.0
2001-06-15,63.94
2001-06-16,65.01
2001-06-17,65.5
2001-06-18,65.01
2001-06-19,66.22
2001-06-20,67.66
2001-06-21,69.09
2001-06-22,69.37
2001-06-23,69.65
2001-06-24,67.69
2001-06-25,64.95
2001-06-26,63.42
2001-06-27,61.15
2001-06-28,59.74
2001-06-29,62.86
2001-06-30,65.87
2001-07-01,67.36
2001-07-02,68.08
2001-07-03,70.4
2001-07-04,69.73
2001-07-05,71.7
2001-07-06,71.9
2001-07-07,71.9
2001-07-08,70.7
2001-07-09,71.9
2001-07-10,72.1
2001-07-11,69.21
2001-07-12,66.65
2001-07-13,67.49
2001-07-14,69.32
2001-07-15,69.89
2001-07-16,70.4
2001-07-17,69.09
2001-07-18,68.75
2001-07-19,68.29
2001-07-20,67.56
2001-07-21,68.26
2001-07-22,67.2
2001-07-23,69.01
2001-07-24,70.2
2001-07-25,71.4
2001-07-26,71.5
2001-07-27,71.8
2001-07-28,71.7
2001-07-29,70.7
2001-07-30,68.98
2001-07-31,67.05
2001-08-01,68.33
2001-08-02,69.68
2001-08-03,70.1
2001-08-04,71.1
2001-08-05,70.3
2001-08-06,71.3
2001-08-07,72.7
2001-08-08,74.1
2001-08-09,74.3
2001-08-10,73.3
2001-08-11,73.1
2001-08-12,73.0
2001-08-13,72.1
2001-08-14,72.3
2001-08-15,72.9
2001-08-16,73.6
2001-08-17,73.4
2001-08-18,72.9
2001-08-19,71.4
2001-08-20,71.2
2001-08-21,70.4
2001-08-22,70.9
2001-08-23,68.98
2001-08-24,68.25
2001-08-25,69.34
2001-08-26,70.3
2001-08-27,71.0
2001-08-28,70.8
2001-08-29,71.3
2001-08-30,71.8
2001-08-31,71.2
2001-09-01,70.9
2001-09-02,70.5
2001-09-03,70.3
2001-09-04,70.2
2001-09-05,69.95
2001-09-06,66.12
2001-09-07,65.73
2001-09-08,66.02
2001-09-09,65.55
2001-09-10,66.24
2001-09-11,65.93
2001-09-12,65.48
2001-09-13,65.3
2001-09-14,62.41
2001-09-15,62.72
2001-09-16,62.55
2001-09-17,62.28
2001-09-18,63.02
2001-09-19,63.03
2001-09-20,62.89
2001-09-21,62.75
2001-09-22,62.99
2001-09-23,63.39
2001-09-24,63.16
2001-09-25,63.08
2001-09-26,58.84
2001-09-27,57.87
2001-09-28,57.57
2001-09-29,56.34
2001-09-30,57.76
2001-10-01,58.8
2001-10-02,60.27
2001-10-03,60.18
2001-10-04,59.78
2001-10-05,60.32
2001-10-06,59.68
2001-10-07,58.77
2001-10-08,58.18
2001-10-09,55.56
2001-10-10,54.22
2001-10-11,56.31
2001-10-12,52.73
2001-10-13,53.11
2001-10-14,53.8
2001-10-15,54.28
2001-10-16,54.84
2001-10-17,54.47
2001-10-18,51.68
2001-10-19,51.29
2001-10-20,52.89
2001-10-21,52.71
2001-10-22,53.75
2001-10-23,53.18
2001-10-24,48.74
2001-10-25,47.65
2001-10-26,48.09
2001-10-27,49.44
2001-10-28,49.86
2001-10-29,50.83
2001-10-30,50.76
2001-10-31,49.12
2001-11-01,48.5
2001-11-02,47.93
2001-11-03,45.95
2001-11-04,45.51
2001-11-05,45.75
2001-11-06,46.47
2001-11-07,43.96
2001-11-08,42.69
2001-11-09,42.68
2001-11-10,43.18
2001-11-11,45.97
2001-11-12,47.77
2001-11-13,44.96
2001-11-14,45.03
2001-11-15,45.03
2001-11-16,45.95
2001-11-17,44.06
2001-11-18,41.71
2001-11-19,41.24
2001-11-20,41.31
2001-11-21,41.66
2001-11-22,41.59
2001-11-23,39.67
2001-11-24,38.59
2001-11-25,38.19
2001-11-26,37.89
2001-11-27,37.78
2001-11-28,37.56
2001-11-29,37.24
2001-11-30,37.07
2001-12-01,36.87
2001-12-02,36.74
2001-12-03,36.6
2001-12-04,36.54
2001-12-05,36.45
2001-12-06,36.28
2001-12-07,36.18
2001-12-08,36.07
2001-12-09,36.04
2001-12-10,35.99
2001-12-11,35.89
2001-12-12,35.82
2001-12-13,35.8
2001-12-14,35.76
2001-12-15,35.79
2001-12-16,35.81
2001-12-17,35.8
2001-12-18,35.75
2001-12-19,35.74
2001-12-20,35.74
2001-12-21,35.73
2001-12-22,35.6
2001-12-23,35.6
2001-12-24,35.51
2001-12-25,35.39
2001-12-26,35.37
2001-12-27,35.32
2001-12-28,35.26
2001-12-29,35.22
2001-12-30,35.16
2001-12-31,35.09
2002-01-01,34.68
2002-01-02,34.63
2002-01-03,35.09
2002-01-04,35.12
2002-01-05,35.0
2002-01-06,36.02
2002-01-07,37.88
2002-01-08,38.5
2002-01-09,37.59
2002-01-10,36.83
2002-01-11,36.72
2002-01-12,36.97
2002-01-13,36.02
2002-01-14,35.4
2002-01-15,34.92
2002-01-16,34.49
2002-01-17,34.32
2002-01-18,34.09
2002-01-19,33.97
2002-01-20,33.85
2002-01-21,33.8
2002-01-22,33.76
2002-01-23,33.77
2002-01-24,33.76
2002-01-25,33.74
2002-01-26,33.7
2002-01-27,33.61
2002-01-28,33.25
2002-01-29,32.85
2002-01-30,32.51
2002-01-31,32.17
2002-02-01,32.12
2002-02-02,32.08
2002-02-03,32.02
2002-02-04,31.96
2002-02-05,31.87
2002-02-06,31.85
2002-02-07,31.87
2002-02-08,31.92
2002-02-09,31.96
2002-02-10,32.01
2002-02-11,32.05
2002-02-12,32.08
2002-02-13,32.11
2002-02-14,32.17
2002-02-15,32.22
2002-02-16,32.3
2002-02-17,32.39
2002-02-18,32.45
2002-02-19,32.5
2002-02-20,32.89
2002-02-21,36.82
2002-02-22,38.03
2002-02-23,39.23
2002-02-24,38.03
2002-02-25,37.84
2002-02-26,37.44
2002-02-27,38.09
2002-02-28,38.39
2002-03-01,37.08
2002-03-02,36.62
2002-03-03,36.59
2002-03-04,37.23
2002-03-05,37.89
2002-03-06,37.74
2002-03-07,38.71
2002-03-08,36.63
2002-03-09,35.89
2002-03-10,35.74
2002-03-11,37.39
2002-03-12,39.81
2002-03-13,38.05
2002-03-14,37.11
2002-03-15,36.87
2002-03-16,36.27
2002-03-17,35.8
2002-03-18,35.53
2002-03-19,36.26
2002-03-20,38.54
2002-03-21,39.76
2002-03-22,40.64
2002-03-23,41.16
2002-03-24,41.22
2002-03-25,40.2
2002-03-26,40.34
2002-03-27,41.2
2002-03-28,41.44
2002-03-29,42.42
2002-03-30,43.11
2002-03-31,43.83
2002-04-01,44.82
2002-04-02,46.17
2002-04-03,47.51
2002-04-04,48.43
2002-04-05,49.85
2002-04-06,49.32
2002-04-07,47.69
2002-04-08,47.9
2002-04-09,49.89
2002-04-10,48.19
2002-04-11,49.85
2002-04-12,48.55
2002-04-13,50.27
2002-04-14,51.55
2002-04-15,49.32
2002-04-16,46.4
2002-04-17,44.94
2002-04-18,43.73
2002-04-19,44.25
2002-04-20,44.52
2002-04-21,46.35
2002-04-22,47.77
2002-04-23,49.36
2002-04-24,49.24
2002-04-25,50.45
2002-04-26,51.46
2002-04-27,50.68
2002-04-28,50.51
2002-04-29,50.15
2002-04-30,45.47
2002-05-01,43.61
2002-05-02,47.99
2002-05-03,49.98
2002-05-04,50.3
2002-05-05,51.41
2002-05-06,50.99
2002-05-07,50.12
2002-05-08,49.26
2002-05-09,51.56
2002-05-10,51.37
2002-05-11,49.6
2002-05-12,52.74
2002-05-13,55.63
2002-05-14,54.29
2002-05-15,55.93
2002-05-16,55.52
2002-05-17,57.33
2002-05-18,57.65
2002-05-19,54.12
2002-05-20,50.8
2002-05-21,51.29
2002-05-22,50.69
2002-05-23,50.77
2002-05-24,53.52
2002-05-25,56.26
2002-05-26,57.73
2002-05-27,58.42
2002-05-28,57.37
2002-05-29,59.33
2002-05-30,60.38
2002-05-31,60.57
2002-06-01,61.97
2002-06-02,59.67
2002-06-03,60.33
2002-06-04,61.48
2002-06-05,63.02
2002-06-06,63.24
2002-06-07,62.81
2002-06-08,58.42
2002-06-09,56.65
2002-06-10,55.77
2002-06-11,58.77
2002-06-12,62.26
2002-06-13,64.31
2002-06-14,65.83
2002-06-15,66.98
2002-06-16,67.87
2002-06-17,67.15
2002-06-18,64.37
2002-06-19,62.76
2002-06-20,64.41
2002-06-21,66.61
2002-06-22,66.71
2002-06-23,66.95
2002-06-24,66.7
2002-06-25,68.65
2002-06-26,70.4
2002-06-27,71.5
2002-06-28,71.1
2002-06-29,69.59
2002-06-30,69.51
2002-07-01,69.5
2002-07-02,70.0
2002-07-03,70.8
2002-07-04,69.59
2002-07-05,69.47
2002-07-06,70.4
2002-07-07,71.3
2002-07-08,69.92
2002-07-09,70.5
2002-07-10,70.8
2002-07-11,72.6
2002-07-12,73.8
2002-07-13,73.9
2002-07-14,74.5
2002-07-15,74.2
2002-07-16,74.1
2002-07-17,73.5
2002-07-18,73.7
2002-07-19,73.7
2002-07-20,73.4
2002-07-21,73.7
2002-07-22,74.0
2002-07-23,71.3
2002-07-24,71.7
2002-07-25,72.1
2002-07-26,71.6
2002-07-27,71.5
2002-07-28,71.1
2002-07-29,72.0
2002-07-30,72.0
2002-07-31,70.8
2002-08-01,70.8
2002-08-02,70.3
2002-08-03,69.48
2002-08-04,68.24
2002-08-05,64.01
2002-08-06,64.08
2002-08-07,64.11
2002-08-08,65.31
2002-08-09,67.37
2002-08-10,68.75
2002-08-11,69.5
2002-08-12,69.99
2002-08-13,71.3
2002-08-14,71.2
2002-08-15,71.0
2002-08-16,71.0
2002-08-17,70.8
2002-08-18,69.32
2002-08-19,69.51
2002-08-20,67.18
2002-08-21,63.81
2002-08-22,64.99
2002-08-23,66.59
2002-08-24,66.54
2002-08-25,67.33
2002-08-26,66.72
2002-08-27,66.97
2002-08-28,67.75
2002-08-29,68.53
2002-08-30,69.14
2002-08-31,67.53
2002-09-01,67.23
2002-09-02,68.35
2002-09-03,68.75
2002-09-04,67.7
2002-09-05,66.02
2002-09-06,64.33
2002-09-07,62.62
2002-09-08,61.75
2002-09-09,62.02
2002-09-10,62.41
2002-09-11,63.27
2002-09-12,63.77
2002-09-13,64.31
2002-09-14,64.1
2002-09-15,64.43
2002-09-16,63.71
2002-09-17,64.31
2002-09-18,62.1
2002-09-19,62.13
2002-09-20,62.36
2002-09-21,62.84
2002-09-22,62.92
2002-09-23,63.43
2002-09-24,63.08
2002-09-25,62.72
2002-09-26,60.83
2002-09-27,60.96
2002-09-28,59.56
2002-09-29,57.95
2002-09-30,55.71
2002-10-01,54.09
2002-10-02,53.46
2002-10-03,53.77
2002-10-04,53.35
2002-10-05,54.65
2002-10-06,56.54
2002-10-07,56.85
2002-10-08,57.08
2002-10-09,56.04
2002-10-10,55.63
2002-10-11,52.17
2002-10-12,51.27
2002-10-13,51.12
2002-10-14,51.45
2002-10-15,52.86
2002-10-16,52.99
2002-10-17,53.22
2002-10-18,53.32
2002-10-19,53.03
2002-10-20,53.37
2002-10-21,53.11
2002-10-22,52.88
2002-10-23,51.98
2002-10-24,51.23
2002-10-25,50.05
2002-10-26,49.81
2002-10-27,48.85
2002-10-28,48.44
2002-10-29,47.14
2002-10-30,46.06
2002-10-31,43.68
2002-11-01,42.12
2002-11-02,40.55
2002-11-03,41.05
2002-11-04,41.56
2002-11-05,42.37
2002-11-06,43.76
2002-11-07,45.83
2002-11-08,44.97
2002-11-09,43.72
2002-11-10,41.7
2002-11-11,42.39
2002-11-12,43.26
2002-11-13,42.26
2002-11-14,41.08
2002-11-15,41.08
2002-11-16,40.69
2002-11-17,41.56
2002-11-18,40.11
2002-11-19,40.99
2002-11-20,41.77
2002-11-21,41.81
2002-11-22,41.09
2002-11-23,40.71
2002-11-24,41.38
2002-11-25,39.62
2002-11-26,38.01
2002-11-27,37.43
2002-11-28,37.53
2002-11-29,37.58
2002-11-30,37.13
2002-12-01,36.78
2002-12-02,36.36
2002-12-03,35.96
2002-12-04,36.03
2002-12-05,36.45
2002-12-06,36.52
2002-12-07,36.43
2002-12-08,35.73
2002-12-09,35.69
2002-12-10,37.01
2002-12-11,37.22
2002-12-12,37.18
2002-12-13,38.46
2002-12-14,39.36
2002-12-15,38.84
2002-12-16,37.89
2002-12-17,36.77
2002-12-18,36.23
2002-12-19,35.89
2002-12-20,35.62
2002-12-21,35.53
2002-12-22,35.31
2002-12-23,35.04
2002-12-24,34.81
2002-12-25,34.67
2002-12-26,34.59
2002-12-27,34.44
2002-12-28,34.87
2002-12-29,35.72
2002-12-30,35.79
2002-12-31,35.56
2003-01-01,35.46
2003-01-02,35.25
2003-01-03,35.92
2003-01-04,37.41
2003-01-05,37.86
2003-01-06,37.15
2003-01-07,36.38
2003-01-08,35.87
2003-01-09,35.5
2003-01-10,35.28
2003-01-11,35.21
2003-01-12,36.49
2003-01-13,38.39
2003-01-14,39.7
2003-01-15,38.8
2003-01-16,37.96
2003-01-17,37.48
2003-01-18,37.53
2003-01-19,37.51
2003-01-20,37.47
2003-01-21,37.62
2003-01-22,39.01
2003-01-23,38.79
2003-01-24,38.22
2003-01-25,39.75
2003-01-26,41.81
2003-01-27,42.4
2003-01-28,39.63
2003-01-29,38.67
2003-01-30,39.93
2003-01-31,42.21
2003-02-01,41.55
2003-02-02,39.35
2003-02-03,38.57
2003-02-04,37.59
2003-02-05,36.56
2003-02-06,35.92
2003-02-07,35.43
2003-02-08,35.07
2003-02-09,34.85
2003-02-10,34.82
2003-02-11,34.85
2003-02-12,34.91
2003-02-13,36.46
2003-02-14,38.91
2003-02-15,39.4
2003-02-16,38.51
2003-02-17,38.07
2003-02-18,38.02
2003-02-19,38.47
2003-02-20,37.99